Location: St. Louis
(38.6270°N, 90.1994°W)
Time: 21:15:45
(UTC-05:00)

deb Kosmos-468 - Pass Details

Date: 21 August 2022
Orbit: 584 x 585 km, 74.0° (Epoch: 30 September)

Event Time Altitude Azimuth Distance (km) Brightness Sun altitude
Rises 00:10:33 0° 339° (NNW) 2,816 ? -37.7°
Reaches altitude 10° 00:12:47 10° 338° (NNW) 1,912 ? -37.9°
Enters shadow 00:13:06 12° 338° (NNW) 1,789 ? -37.9°
